Flag for U.S.A. Weather past 2 weeks in Charleston, West Virginia, U.S.A.

Now
39 °F

Sunny.


Feels Like: 39 °F
Forecast: 35 / 64 °F
Wind: No wind

Location: Yeager Airport

Current Time: Apr 1, 2015 at 9:28:01 AM

Latest Report: Apr 1, 2015 at 8:54 AM


Visibility: 10 mi

Pressure: 30.14 "Hg

Humidity: 79%

Dew point: 33 °F

Location of CharlestonLocation

Historic Weather in Charleston — Graph

°F

Charleston temperature yesterday

Maximum temperature yesterday: 72 °F (at 2:54 PM)
Minimum temperature yesterday: 37 °F (at 6:54 AM)
Average temperature yesterday: 55 °F

Past Weeks' High & Low Weather Summary

 TemperatureHumidityPressure
High76 °F (Mar 25, 4:54 PM)97% (Mar 20, 6:54 AM)30.43 "Hg (Mar 20, 6:54 AM)
Low18 °F (Mar 29, 6:54 AM)12% (Mar 29, 4:54 PM)29.66 "Hg (Mar 31, 3:54 PM)
Average46 °F54%30.08 "Hg
* Reported Mar 17 7:54 AM — Apr 1 7:54 AM, Charleston, Weather by CustomWeather, © 2015

Note: Actual official high and low records may vary slightly from our data, if they occured in-between our weather recording intervals... More about our weather records

Advertising

Charleston weather history for previous 24 hours

 ConditionsComfort  
Time TempWeatherWind HumidityBarometerVisibility
7:54 AM
Wed, Apr 1
33 °FClear.No wind92%30.13 "Hg10 mi
6:54 AM34 °FClear.No wind88%30.08 "Hg10 mi
5:54 AM34 °FClear.5 mph85%30.05 "Hg10 mi
4:54 AM39 °FClear.No wind73%30.03 "Hg10 mi
3:54 AM40 °FClear.3 mph70%30.02 "Hg10 mi
2:54 AM42 °FClear.5 mph68%30.01 "Hg10 mi
1:54 AM43 °FClear.5 mph65%30.01 "Hg10 mi
12:54 AM45 °FClear.7 mph63%30.00 "Hg10 mi
11:54 PM
Tue, Mar 31
47 °FClear.8 mph59%29.98 "Hg10 mi
10:54 PM49 °FClear.3 mph55%29.96 "Hg10 mi
9:54 PM51 °FClear.12 mph52%29.94 "Hg10 mi
8:54 PM56 °FPassing clouds.20 mph49%29.88 "Hg10 mi
7:54 PM61 °FPassing clouds.21 mph38%29.81 "Hg10 mi
6:54 PM67 °FScattered clouds.15 mph22%29.76 "Hg10 mi
5:54 PM70 °FScattered clouds.17 mph21%29.71 "Hg10 mi
4:54 PM70 °FPartly sunny.18 mph23%29.68 "Hg10 mi
3:54 PM72 °FScattered clouds.22 mph24%29.66 "Hg10 mi
2:54 PM72 °FScattered clouds.16 mph24%29.67 "Hg10 mi
1:54 PM70 °FScattered clouds.21 mph23%29.70 "Hg10 mi
12:54 PM69 °FScattered clouds.31 mph21%29.73 "Hg10 mi
11:54 AM67 °FScattered clouds.23 mph23%29.78 "Hg10 mi
10:54 AM62 °FScattered clouds.15 mph24%29.82 "Hg10 mi
9:54 AM58 °FScattered clouds.15 mph31%29.85 "Hg10 mi
Weather by CustomWeather, © 2015

See weather overviewHow to use our weather pages